Dutch Harbor, AK

12:27 AM AKST on February 24, 2017 (GMT -0900)
Unalaska

Weather History for PADU - December, 2012

Change the Weather History Date:

Monday, December 3, 2012

  Actual Average Record
Temperature  
Mean Temperature 32 °F -  
Max Temperature 34 °F 39 °F 50 °F (2008)
Min Temperature 30 °F 31 °F 19 °F (1987)
Degree Days  
Heating Degree Days 33    
Moisture  
Dew Point 22 °F    
Average Humidity 66    
Maximum Humidity 72    
Minimum Humidity 60    
Precipitation  
Precipitation 0.00 in - - ()
Sea Level Pressure  
Sea Level Pressure 30.13 in    
Wind  
Wind Speed 18 mph (NNW)    
Max Wind Speed 24 mph    
Max Gust Speed 34 mph    
Visibility 10 miles    
Events      
Averages and records for this station are not official NWS values.
T = Trace of Precipitation, MM = Missing Value Source: NWS Daily Summary

Daily Weather History Graph

Daily Weather History Graph

Search for Another Location

Airport or City:

Trip Planner

Search our weather history database for the weather conditions in past years. The results will help you decide how hot, cold, wet, or windy it might be!

Date:

Astronomy

Dec. 03, 2012 Rise Set
Actual Time 10:05 AM AKST 5:47 PM AKST
Civil Twilight 9:22 AM AKST 6:29 PM AKST
Nautical Twilight 8:37 AM AKST 7:14 PM AKST
Astronomical Twilight 7:54 AM AKST 7:57 PM AKST
Moon 11:14 PM AKST (12/3) 1:10 PM AKST (12/3)
Length of Visible Light 9h 06m
Length of Day
7h 41m
Waning Gibbous, 77% of the Moon is Illuminated
Dec 3
Waning Gibbous
Dec 6
Last Quarter
Dec 12
New
Dec 19
First Quarter
Dec 28
Full

Hourly Weather History & Observations

Time (AKST) Temp. Windchill Dew Point Humidity Pressure Visibility Wind Dir Wind Speed Gust Speed Precip Events Conditions
1:56 AM 34.0 °F 23.0 °F 24.1 °F 67% 30.15 in 10.0 mi NNW 18.4 mph 23.0 mph 0.00 in   Overcast
2:15 AM 33.8 °F 24.8 °F 23.0 °F 65% 30.13 in 10.0 mi NW 12.7 mph - 0.00 in   Overcast
2:38 AM 33.8 °F 23.2 °F 24.8 °F 70% 30.13 in 10.0 mi NW 17.3 mph - 0.00 in   Overcast
3:56 AM 33.1 °F 21.5 °F 23.0 °F 66% 30.14 in 10.0 mi North 19.6 mph 25.3 mph 0.00 in   Overcast
4:49 AM 33.8 °F 23.2 °F 21.2 °F 60% 30.12 in 10.0 mi NNW 17.3 mph 25.3 mph 0.00 in   Overcast
4:56 AM 33.1 °F 21.5 °F 23.0 °F 66% 30.14 in 10.0 mi NW 19.6 mph 24.2 mph 0.00 in   Overcast
5:21 AM 33.8 °F 22.2 °F 23.0 °F 65% 30.11 in 10.0 mi NNW 20.7 mph - N/A   Overcast
5:42 AM 33.8 °F 23.2 °F 23.0 °F 65% 30.11 in 10.0 mi NNW 17.3 mph - N/A   Overcast
5:56 AM 34.0 °F 23.0 °F 24.1 °F 67% 30.13 in 10.0 mi NNW 18.4 mph - N/A   Overcast
6:09 AM 33.8 °F 22.8 °F 23.0 °F 65% 30.11 in 10.0 mi NNW 18.4 mph 25.3 mph N/A   Overcast
6:29 AM 33.8 °F 23.5 °F 21.2 °F 60% 30.10 in 10.0 mi NNW 16.1 mph - N/A   Overcast
6:56 AM 33.1 °F 21.9 °F 23.0 °F 66% 30.12 in 10.0 mi NNW 18.4 mph - N/A   Overcast
7:46 AM 33.8 °F 22.5 °F 21.2 °F 60% 30.11 in 10.0 mi NNW 19.6 mph - N/A   Overcast
7:56 AM 33.1 °F 22.6 °F 23.0 °F 66% 30.13 in 10.0 mi NNW 16.1 mph 27.6 mph N/A   Overcast
8:56 AM 34.0 °F 22.4 °F 23.0 °F 64% 30.13 in 10.0 mi NNW 20.7 mph 25.3 mph N/A   Overcast
9:56 AM 34.0 °F 23.0 °F 23.0 °F 64% 30.13 in 10.0 mi NNW 18.4 mph 27.6 mph N/A   Overcast
10:56 AM 34.0 °F 22.7 °F 23.0 °F 64% 30.14 in 10.0 mi NNW 19.6 mph - N/A   Overcast
11:56 AM 33.1 °F 20.3 °F 23.0 °F 66% 30.14 in 10.0 mi North 24.2 mph 34.5 mph N/A   Mostly Cloudy
12:56 PM 32.0 °F 20.1 °F 23.0 °F 69% 30.15 in 10.0 mi NNW 19.6 mph 24.2 mph N/A   Mostly Cloudy
1:56 PM 32.0 °F 19.5 °F 21.9 °F 66% 30.14 in 10.0 mi NNW 21.9 mph 26.5 mph 0.00 in   Mostly Cloudy
2:56 PM 32.0 °F 21.2 °F 23.0 °F 69% 30.14 in 10.0 mi NNW 16.1 mph - 0.00 in   Overcast
3:56 PM 32.0 °F 20.1 °F 21.9 °F 66% 30.13 in 10.0 mi NNW 19.6 mph - N/A   Mostly Cloudy
4:56 PM 32.0 °F 18.9 °F 23.0 °F 69% 30.12 in 10.0 mi North 24.2 mph 29.9 mph N/A   Overcast
5:56 PM 30.9 °F 18.4 °F 23.0 °F 72% 30.13 in 10.0 mi NW 20.7 mph - 0.00 in   Overcast
6:56 PM 30.0 °F 17.5 °F 21.9 °F 72% 30.13 in 10.0 mi North 19.6 mph 26.5 mph N/A   Overcast
7:56 PM 30.0 °F 18.3 °F 21.0 °F 69% 30.13 in 10.0 mi North 17.3 mph 26.5 mph N/A   Overcast
8:56 PM 30.0 °F 16.9 °F 21.0 °F 69% 30.11 in 10.0 mi NNW 21.9 mph 25.3 mph N/A   Overcast
9:56 PM 30.0 °F 18.7 °F 21.0 °F 69% 30.12 in 10.0 mi North 16.1 mph 24.2 mph N/A   Overcast
10:56 PM 30.0 °F 19.5 °F 19.9 °F 66% 30.12 in 10.0 mi North 13.8 mph 20.7 mph N/A   Overcast
11:56 PM 30.0 °F 19.1 °F 19.9 °F 66% 30.12 in 10.0 mi NNW 15.0 mph - N/A   Overcast